Home   Weather   Newport   Past weeks

Flag for United Kingdom Past Weather in Newport, Wales, United Kingdom — Yesterday and Last 2 Weeks

Now
46 °F

Mostly cloudy.


Feels Like: 41 °F
Forecast: 44 / 50 °F
Wind: 12 mph from Southwest

Location: Bristol / Lulsgate

Current Time: Feb 25, 2017 at 9:25:26 am

Latest Report: Feb 25, 2017 at 8:50 am


Visibility: N/A

Pressure: 29.89 "Hg

Humidity: 82%

Dew Point: 41 °F

Location of NewportLocation

Past Weather in Newport — Graph

°F

Newport Temperature Yesterday

Maximum temperature yesterday: 46 °F (at 12:50 pm)
Minimum temperature yesterday: 36 °F (at 2:20 am)
Average temperature yesterday: 41 °F

High & Low Weather Summary for the Past Weeks

 TemperatureHumidityPressure
High52 °F (Feb 18, 2:20 pm)100% (Feb 10, 8:20 am)30.42 "Hg (Feb 10, 8:20 am)
Low30 °F (Feb 10, 7:50 pm)61% (Feb 24, 1:20 pm)29.33 "Hg (Feb 23, 6:20 am)
Average43 °F91%30.11 "Hg
* Reported Feb 10 8:20 am — Feb 25 8:20 am, Newport, Weather by CustomWeather, © 2017

Note: Actual official high and low records may vary slightly from our data, if they occured in-between our weather recording intervals... More about our weather records

Advertising

Newport Weather History for the Previous 24 Hours

Scroll right to see more
 ConditionsComfort  
Time TempWeatherWind HumidityBarometerVisibility
8:20 am
Sat, Feb 25
46 °FMostly cloudy.13 mph82%29.92 "HgN/A
7:50 am45 °FOvercast.16 mph93%29.89 "HgN/A
7:20 am45 °FCloudy.12 mph87%29.89 "HgN/A
6:50 am45 °FMostly cloudy.13 mph87%29.92 "HgN/A
6:20 am45 °FMostly cloudy.12 mph87%29.92 "HgN/A
5:50 am45 °FMostly cloudy.12 mph87%29.92 "HgN/A
5:20 am45 °FOvercast.14 mph87%29.95 "HgN/A
4:50 am45 °FMostly cloudy.13 mph87%29.95 "HgN/A
4:20 am45 °FOvercast.13 mph87%29.95 "HgN/A
3:50 am45 °FOvercast.13 mph87%29.98 "HgN/A
3:20 am45 °FOvercast.13 mph87%29.98 "HgN/A
2:50 am45 °FOvercast.13 mph87%29.98 "HgN/A
2:20 am43 °FMostly cloudy.12 mph93%30.01 "HgN/A
1:50 am43 °FPassing clouds.10 mph87%30.01 "HgN/A
1:20 am43 °FLight rain. Passing clouds.9 mph87%30.01 "HgN/A
12:50 am43 °FPassing clouds.9 mph81%30.01 "HgN/A
12:20 am43 °FQuite cool.10 mph81%30.04 "HgN/A
11:50 pm
Fri, Feb 24
43 °FQuite cool.10 mph81%30.04 "HgN/A
11:20 pm43 °FPassing clouds.8 mph81%30.04 "HgN/A
10:50 pm43 °FPassing clouds.8 mph81%30.04 "HgN/A
10:20 pm43 °FQuite cool.8 mph76%30.04 "HgN/A
9:50 pm43 °FQuite cool.7 mph76%30.07 "HgN/A
9:20 pm43 °FQuite cool.8 mph76%30.07 "HgN/A
8:50 pm41 °FQuite cool.7 mph81%30.07 "HgN/A
8:20 pm41 °FQuite cool.5 mph87%30.07 "HgN/A
7:50 pm41 °FQuite cool.5 mph81%30.07 "HgN/A
7:20 pm41 °FQuite cool.7 mph81%30.09 "HgN/A
6:50 pm43 °FQuite cool.7 mph76%30.09 "HgN/A
6:20 pm41 °FQuite cool.7 mph87%30.09 "HgN/A
5:50 pm41 °FQuite cool.6 mph81%30.09 "HgN/A
5:20 pm43 °FQuite cool.8 mph76%30.09 "HgN/A
4:50 pm43 °FQuite cool.9 mph76%30.09 "HgN/A
4:20 pm45 °FPassing clouds.13 mph71%30.07 "HgN/A
3:50 pm45 °FPassing clouds.12 mph71%30.07 "HgN/A
3:20 pm45 °FScattered clouds.10 mph71%30.07 "HgN/A
2:50 pm45 °FScattered clouds.13 mph71%30.07 "HgN/A
2:20 pm46 °FCool.12 mph66%30.07 "HgN/A
1:50 pm45 °FPassing clouds.12 mph66%30.07 "HgN/A
1:20 pm45 °FScattered clouds.12 mph61%30.07 "HgN/A
12:50 pm46 °FPartly sunny.14 mph62%30.07 "HgN/A
12:20 pm45 °FBroken clouds.9 mph66%30.07 "HgN/A
11:50 am45 °FBroken clouds.10 mph71%30.09 "HgN/A
11:20 am45 °FScattered clouds.12 mph66%30.07 "HgN/A
10:50 am43 °FPartly sunny.12 mph71%30.07 "HgN/A
10:20 am43 °FQuite cool.14 mph71%30.07 "HgN/A
9:50 am41 °FQuite cool.14 mph81%30.07 "HgN/A
9:20 am41 °FQuite cool.14 mph81%30.04 "HgN/A
Weather by CustomWeather, © 2017

See weather overviewHow to use our weather pages